Back to catalog

STARLINK-30377

AliveCommunicationsVLEO
NORAD 57825·PAYLOAD·🇺🇸 United States

Launched Sep 9, 2023 from Cape Canaveral Space Force Station

Loading…

Next Passes (next 24 hours)

TLE

FreshSource: CelesTrak SupGP

Epoch: Sep 14, 2026, 14:26 UTC

1 57825C 23138T   26257.60187500 -.00039314  00000+0 -14239-2 0  2572
2 57825  42.9995 247.0625 0001329 267.8080  61.9320 15.27598770    12

Track STARLINK-30377 in real time with AllMySat

Download on the App Store